カタログに戻る

CZ-6A DEB

運用中PO
NORAD 61479·DEBRIS·🇨🇳 China

打ち上げ Aug 6, 2024 から Taiyuan Satellite Launch Center

Loading…

次のパス (今後24時間)

TLE

最新Source: Space-Track

元期: Sep 14, 2026, 00:27 UTC

1 61479U 24140AAM 26257.01935037  .00000773  00000-0  43111-3 0  9998
2 61479  89.0563 272.2381 0158386 280.3023  78.0334 14.03978915105675

AllMySatでCZ-6A DEBをリアルタイム追跡

Download on the App Store